Weather in Baykovo

Russia / Sakhalin District     47°28′40″N   141°57′55″E
temp.,
°C
wind,
m/s
gust,
m/s
humid.,
%
clouds,
%
prec.,
mm/h
press.,
hPa
HPBL,
m
11 april, sun
sun1123:00−1se34910 0.0 102762
02:00−1se35902 0.0 102797
05:00−1se36925 0.0 1027100
08:000sse48915 0.0 1027198
11:00+5s611765 0.0 1026447
14:00+6ssw8147966 0.0 1026609
17:00+5ssw81683100 0.0 1024602
20:00+4s7178637 0.0 1024556
12 april, mon
mon1223:00+4s71592100 0.0 1025569
02:00+4ssw71695100 0.1 1024653
05:00+4ssw71496100 0.1 1023621
08:00+4s81696100 0.0 1022710
11:00+5ssw91794100 0.0 1021684
14:00+5ssw9179198 0.0 1020638
17:00+5ssw8168894 0.0 1019678
20:00+4ssw81786100 0.0 1018754
13 april, tue
tue1323:00+4ssw82083100 0.0 1018765
02:00+4s92177100 0.0 1016812
05:00+4ssw102180100 0.0 1013780
08:00+5s9199192 0.0 1011811
11:00+6s101990100 0.2 1009961
14:00+5ssw91896100 0.5 1007806
17:00+5ssw102196100 5.6 10041224
20:00+5s91896100 5.5 10021083
14 april, wed
wed1423:00+7s71893100 12.6 9971237
02:00+6ssw91696100 4.8 9931028
05:00−1nw71293100 5.8 999812
08:00−1wsw91275100 1.0 10011068
11:000w10136390 1.0 10031472
14:00+1wsw811575 0.0 10051566
17:00+2wsw795513 0.0 10061569
20:00+1wsw696093 0.1 1007719
15 april, thu
thu1523:000wnw4675100 0.3 1009616
02:00−2n118912 0.3 1011104
05:00−2sse018012 0.3 1013257
08:00−1ssw35765 0.0 1014409
11:00+2wsw45565 0.1 10151303
14:00+3wsw45524 0.0 10161424
17:00+2wsw34541 0.0 1017948
20:000ssw22660 0.0 1019127